Powrót do katalogu

FIRESAT3

AktywnyNaukaSSO
NORAD 69890·PAYLOAD·🇺🇸 United States

Wystrzelony Jul 7, 2026 z Vandenberg Space Force Base

Loading…

Następne Przeloty (najbliższe 24 godziny)

TLE

ŚwieżeSource: Space-Track

Epoka: Sep 13, 2026, 16:20 UTC

1 69890U 26156X   26256.68113530  .00000886  00000-0  92442-4 0  9997
2 69890  97.7463 156.0243 0005177 298.7239  61.3460 14.92214603 10194

Śledź FIRESAT3 w czasie rzeczywistym z AllMySat

Download on the App Store